Location: Kershaw
(34.5481°N, 80.5823°W)
Time: 08:47:50
(UTC+00:00)

Transit 2A Rocket - Pass Details

Date: 08 October 2022
Orbit: 589 x 911 km, 66.7° (Epoch: 04 December)

Event Time Altitude Azimuth Distance (km) Brightness Sun altitude
Exits shadow 08:37:18 20° 79° (E) 1,392 7.0 -34.4°
Drops below altitude 10° 08:39:15 10° 55° (NE) 1,916 7.8 -34.0°
Sets 08:41:48 0° 42° (NE) 2,829 8.7 -33.5°
